Content
SEND FEEDBACK

Daily
Averages
Monthly
Summary
Czech Republic

BRNO, CZECH REPUBLIC


Home > Europe > Czech Republic
Elevation: 807 feet     Latitude: 49 09N     Longitude: 016 42E

WEATHER
 
SELECT A DAY
Number of Records: 286,767;   Date Range: 2/20/97 - 8/10/14
 
SHARE

PRINT THIS DATA

[ ← Previous Day ]
WEATHER ALMANAC - SEPTEMBER 25, 2013
[ Next Day → ]
[ °C ]   °F
Weather ElementAverageHighLow
Temperature54.9 °F60.8 °F (3:30 pm)51.8 °F (2:00 am)
Dewpoint45.4 °F50 °F (12:30 am)42.8 °F (5:30 am)
Humidity70.4 %88 % (12:30 am)46 % (2:00 pm)
Barometer29.95 in30.01 in (8:00 am)29.86 in (11:30 pm)
Wind Speed5.1 mph18.4 mph (2:00 am)
Weather ElementAverage
Visibility8.2 mi
Wind DirectionE (92.5 °)

Weather ElementTotal
Precipitation---
Heating Degree Days8.7 (Base 65)
Growing Degree Days6.3 (Base 50)
Averaged from 51 records on September 25, 2013
WEATHER CONDITIONS BREAKOUT
WIND DIRECTION BREAKOUT
WEATHER BY HOUR - SEPTEMBER 25, 2013
[ °C ]   °F
Local TimeTemperatureDewpointHumidityBarometerVisibilityWind DirectionWind SpeedGust SpeedPrecipitationEventsConditions
12:30 AM53.6 °F50.0 °F88 %29.95 inSSW (200°)3.5 mphClear
1:00 AM53.6 °F50.0 °F88 %29.95 inCalmClear
1:30 AM53.6 °F50.0 °F88 %29.95 inVariable2.3 mphClear
2:00 AM52.0 °F48.0 °F81 %29.99 in12.0 miENE (70°)17.9 mphOvercast
2:00 AM51.8 °F48.2 °F88 %29.98 in6.2 miENE (70°)18.4 mphOvercast
2:30 AM51.8 °F46.4 °F82 %29.98 in6.2 miENE (60°)15.0 mphOvercast
3:00 AM51.8 °F46.4 °F82 %29.98 in6.2 miENE (60°)12.7 mphOvercast
3:30 AM51.8 °F44.6 °F76 %29.98 in6.2 miENE (60°)8.1 mphOvercast
4:00 AM51.8 °F44.6 °F76 %29.98 in6.2 miNE (40°)5.8 mphOvercast
4:30 AM51.8 °F44.6 °F76 %29.98 in6.2 miNE (50°)3.5 mphOvercast
5:00 AM51.8 °F44.6 °F76 %29.98 in6.2 miCalmOvercast
5:30 AM51.8 °F42.8 °F71 %29.98 in6.2 miCalmOvercast
6:00 AM51.8 °F44.6 °F76 %29.98 in6.2 miNorth (360°)3.5 mphMostly Cloudy
6:30 AM51.8 °F44.6 °F76 %29.98 in6.2 miNorth (360°)3.5 mphMostly Cloudy
7:00 AM51.8 °F42.8 °F71 %29.98 in6.2 miNorth (350°)2.3 mphMostly Cloudy
7:34 AM51.8 °F44.6 °F76 %29.98 in6.2 miNorth (360°)3.5 mphMostly Cloudy
8:00 AM52.0 °F43.0 °F64 %30.01 in19.0 miNorth (10°)2.2 mphMostly Cloudy
8:00 AM51.8 °F42.8 °F71 %29.98 in6.2 miVariable2.3 mphMostly Cloudy
8:30 AM51.8 °F42.8 °F71 %30.01 in6.2 miVariable2.3 mphMostly Cloudy
9:00 AM51.8 °F44.6 °F76 %30.01 in6.2 miNE (50°)3.5 mphMostly Cloudy
9:30 AM51.8 °F44.6 °F76 %30.01 in6.2 miENE (70°)5.8 mphMostly Cloudy
10:00 AM53.6 °F44.6 °F72 %30.01 in6.2 miEast (80°)8.1 mphMostly Cloudy
10:30 AM53.6 °F44.6 °F72 %30.01 in6.2 miENE (70°)6.9 mphMostly Cloudy
11:00 AM55.4 °F44.6 °F67 %30.01 in6.2 miESE (120°)6.9 mphMostly Cloudy
11:30 AM55.4 °F44.6 °F67 %30.01 in6.2 miESE (120°)5.8 mphMostly Cloudy
12:00 PM55.4 °F44.6 °F67 %30.01 in6.2 miSE (130°)4.6 mphMostly Cloudy
12:30 PM55.4 °F44.6 °F67 %30.01 inSE (130°)4.6 mphClear
1:00 PM57.2 °F44.6 °F63 %29.98 inSE (140°)4.6 mphClear
1:30 PM57.2 °F44.6 °F63 %29.98 inSE (130°)4.6 mphClear
2:00 PM58.0 °F43.0 °F46 %29.97 in31.0 miSE (130°)4.5 mphMostly Cloudy
2:00 PM57.2 °F42.8 °F59 %29.98 inESE (110°)3.5 mphClear
2:30 PM57.2 °F44.6 °F63 %29.95 inESE (120°)3.5 mphClear
3:00 PM59.0 °F42.8 °F55 %29.95 inSE (140°)3.5 mphClear
3:30 PM60.8 °F46.4 °F59 %29.92 inSE (130°)5.8 mphClear
4:00 PM60.8 °F44.6 °F55 %29.92 inESE (120°)4.6 mphClear
4:30 PM60.8 °F46.4 °F59 %29.92 inESE (120°)3.5 mphClear
5:00 PM60.8 °F46.4 °F59 %29.89 inEast (100°)4.6 mphClear
5:30 PM60.8 °F46.4 °F59 %29.92 inNE (50°)5.8 mphClear
6:00 PM60.8 °F44.6 °F55 %29.89 inENE (60°)4.6 mphClear
6:30 PM59.0 °F46.4 °F63 %29.89 inEast (80°)5.8 mphClear
7:00 PM57.2 °F46.4 °F67 %29.89 inENE (70°)5.8 mphClear
7:30 PM57.2 °F46.4 °F67 %29.89 inNE (40°)5.8 mphClear
8:00 PM56.0 °F46.0 °F60 %29.90 in25.0 miENE (60°)6.7 mphPartly Cloudy
8:00 PM55.4 °F46.4 °F72 %29.89 inENE (60°)6.9 mphClear
8:30 PM55.4 °F46.4 °F72 %29.89 inENE (60°)6.9 mphClear
9:00 PM55.4 °F46.4 °F72 %29.89 in6.2 miENE (60°)4.6 mphMostly Cloudy
9:30 PM55.4 °F46.4 °F72 %29.89 in6.2 miENE (60°)4.6 mphMostly Cloudy
10:00 PM55.4 °F46.4 °F72 %29.89 in6.2 miVariable2.3 mphMostly Cloudy
10:30 PM53.6 °F46.4 °F77 %29.89 in6.2 miENE (60°)2.3 mphMostly Cloudy
11:00 PM53.6 °F46.4 °F77 %29.89 in6.2 miVariable1.2 mphMostly Cloudy
11:30 PM53.6 °F48.2 °F82 %29.86 in6.2 miVariable2.3 mphMostly Cloudy
Hourly data recorded from LKTB, located miles away from Brno, Czech Republic







STORIES FROM OUR PARTNERS